Temp
-15 -16 -16 -15 -15 -15 -15 -15 -15 -15 -15 -15 -15 -14 -14 -14 -14 -14 -14 -14 -14 -14 -14 -14 -14 -15 -15 -15 -15 -15 -15 -15 -15 -15 -15 -15 -15 -15 -15 -15 -14 -15
-16 -16 -16 -16 -16 -16 -16 -15 -15 -15 -15 -15 -15 -15 -14 -14 -14 -14 -14 -14 -14 -14 -14 -15 -15 -15 -15 -15 -15 -15 -15 -15 -15 -15 -15 -15 -15 -15 -15 -15 -15 -15
-16 -16 -16 -16 -16 -16 -15 -15 -16 -15 -15 -15 -15 -15 -14 -14 -14 -14 -14 -14 -14 -15 -15 -15 -15 -15 -15 -15 -15 -15 -15 -15 -15 -15 -15 -15 -15 -15 -15 -15 -15 -15
-16 -16 -16 -16 -16 -15 -15 -15 -15 -15 -15 -15 -15 -15 -15 -15 -14 -14 -14 -14 -15 -15 -15 -15 -15 -15 -15 -15 -16 -16 -16 -15 -15 -15 -15 -15 -15 -15 -15 -15 -15 -15
-15 -15 -15 -15 -15 -15 -15 -15 -15 -16 -16 -16 -16 -15 -15 -15 -15 -15 -15 -15 -15 -15 -15 -15 -15 -15 -15 -16 -16 -16 -16 -16 -16 -16 -15 -15 -15 -15 -15 -15 -15 -15
-15 -15 -15 -15 -15 -15 -15 -15 -15 -15 -16 -16 -16 -16 -15 -15 -15 -15 -15 -15 -15 -15 -15 -15 -15 -15 -15 -16 -16 -16 -16 -16 -16 -16 -16 -16 -16 -15 -15 -15 -15 -15
-15 -15 -15 -15 -15 -15 -15 -15 -15 -15 -16 -16 -16 -16 -16 -15 -15 -15 -15 -15 -15 -15 -15 -15 -15 -15 -16 -16 -16 -16 -16 -16 -16 -16 -16 -16 -16 -16 -16 -16 -16 -16
-15 -15 -15 -15 -15 -15 -15 -15 -15 -15 -15 -16 -16 -16 -16 -16 -15 -15 -15 -15 -15 -15 -15 -15 -15 -16 -16 -16 -16 -16 -16 -17 -16 -16 -16 -16 -16 -16 -16 -16 -16 -16
-15 -15 -15 -15 -15 -15 -15 -15 -15 -15 -16 -16 -16 -16 -16 -16 -16 -15 -15 -15 -15 -15 -15 -15 -16 -16 -16 -16 -16 -17 -17 -17 -17 -17 -17 -16 -16 -16 -16 -16 -16 -16
-15 -15 -15 -15 -15 -15 -15 -15 -16 -16 -16 -16 -16 -16 -16 -16 -16 -16 -15 -15 -15 -15 -15 -16 -16 -16 -16 -16 -16 -17 -17 -17 -17 -17 -17 -17 -16 -16 -16 -16 -16 -17
-16 -16 -15 -15 -15 -15 -15 -15 -15 -16 -16 -16 -16 -17 -16 -16 -16 -16 -16 -16 -16 -16 -16 -16 -16 -16 -16 -16 -16 -17 -17 -17 -17 -17 -17 -17 -17 -17 -16 -16 -17 -17
-15 -15 -15 -16 -16 -15 -16 -15 -15 -16 -16 -16 -17 -17 -17 -17 -16 -16 -16 -16 -16 -16 -16 -16 -16 -16 -16 -17 -17 -17 -17 -17 -17 -17 -17 -17 -17 -17 -17 -17 -17 -17
-15 -16 -16 -16 -16 -16 -16 -16 -16 -16 -16 -17 -17 -17 -17 -17 -17 -17 -17 -16 -16 -16 -16 -17 -17 -17 -17 -17 -17 -17 -17 -17 -17 -17 -17 -17 -17 -17 -17 -17 -17 -18
-16 -16 -16 -16 -16 -16 -16 -16 -16 -16 -17 -17 -17 -17 -17 -17 -17 -17 -17 -17 -16 -16 -17 -17 -17 -17 -17 -17 -18 -18 -18 -18 -18 -18 -18 -18 -17 -17 -17 -17 -18 -18
-16 -16 -16 -16 -16 -16 -16 -16 -17 -17 -17 -18 -17 -17 -17 -17 -17 -17 -17 -17 -17 -17 -17 -17 -17 -17 -17 -17 -17 -17 -17 -17 -18 -18 -18 -18 -18 -18 -18 -18 -18 -18
-16 -16 -16 -16 -16 -16 -17 -17 -17 -17 -18 -18 -18 -17 -17 -17 -17 -17 -17 -17 -17 -17 -17 -17 -17 -17 -17 -17 -17 -17 -17 -17 -17 -17 -17 -18 -18 -18 -18 -18 -18 -18
-16 -16 -17 -17 -17 -17 -17 -17 -17 -17 -17 -18 -18 -18 -17 -17 -17 -17 -17 -17 -17 -17 -17 -17 -17 -17 -17 -17 -17 -17 -17 -17 -17 -17 -17 -18 -18 -17 -17 -17 -18 -18
-17 -17 -17 -17 -17 -17 -17 -18 -18 -17 -17 -17 -17 -18 -17 -17 -17 -17 -17 -17 -17 -17 -17 -17 -17 -17 -17 -17 -17 -17 -17 -17 -17 -18 -17 -18 -18 -17 -17 -17 -18 -18
-18 -17 -17 -17 -17 -17 -18 -18 -18 -18 -17 -17 -17 -17 -17 -17 -17 -17 -17 -17 -17 -17 -17 -17 -17 -17 -17 -17 -17 -17 -17 -17 -18 -18 -18 -17 -17 -17 -17 -17 -17 -17
-18 -18 -18 -18 -18 -18 -18 -18 -18 -18 -18 -17 -17 -17 -17 -17 -17 -18 -18 -17 -17 -17 -17 -17 -17 -17 -17 -17 -18 -18 -18 -18 -18 -18 -18 -18 -17 -17 -17 -17 -17 -17
-18 -18 -18 -18 -18 -18 -18 -18 -18 -18 -18 -18 -18 -18 -18 -17 -17 -18 -18 -18 -18 -18 -18 -18 -18 -18 -18 -18 -18 -18 -18 -18 -18 -18 -18 -18 -18 -18 -18 -18 -18 -17
-18 -18 -18 -18 -18 -18 -18 -18 -18 -18 -18 -18 -18 -18 -18 -18 -18 -18 -18 -18 -18 -18 -18 -18 -18 -18 -18 -18 -18 -18 -18 -18 -18 -18 -18 -18 -18 -18 -18 -18 -18 -18
-18 -18 -18 -18 -18 -18 -18 -18 -18 -18 -18 -19 -19 -19 -18 -18 -18 -18 -18 -18 -18 -18 -19 -19 -19 -18 -18 -18 -18 -18 -18 -18 -18 -18 -18 -18 -18 -18 -18 -18 -18 -18
-18 -18 -18 -18 -18 -18 -19 -19 -19 -19 -19 -19 -19 -19 -19 -19 -19 -19 -19 -19 -19 -19 -19 -19 -19 -19 -19 -19 -19 -19 -19 -18 -18 -18 -18 -18 -18 -18 -18 -19 -19 -19
-18 -18 -18 -18 -18 -19 -19 -19 -19 -19 -19 -19 -19 -19 -19 -19 -19 -19 -19 -19 -19 -19 -19 -19 -19 -19 -19 -19 -19 -19 -18 -18 -18 -18 -18 -18 -18 -18 -19 -19 -19 -19
-19 -19 -19 -19 -19 -19 -19 -19 -19 -19 -19 -19 -19 -19 -19 -19 -19 -19 -19 -19 -19 -19 -19 -19 -19 -19 -19 -19 -19 -18 -18 -18 -18 -18 -18 -19 -19 -19 -19 -19 -19 -19
Height
5774 5775 5776 5777 5776 5776 5776 5777 5778 5779 5779 5780 5781 5781 5781 5781 5780 5780 5779 5778 5778 5778 5778 5778 5777 5777 5777 5777 5777 5777 5778 5778 5779 5780 5781 5782 5782 5782 5782 5782 5782 5782
5772 5773 5774 5774 5774 5774 5775 5775 5776 5776 5777 5778 5779 5779 5779 5779 5779 5778 5777 5776 5776 5776 5776 5776 5775 5775 5775 5775 5775 5775 5775 5776 5777 5778 5779 5780 5780 5781 5780 5780 5780 5780
5771 5771 5772 5772 5772 5773 5773 5773 5774 5774 5775 5776 5776 5777 5778 5778 5777 5776 5775 5774 5774 5774 5774 5773 5773 5773 5773 5773 5773 5773 5773 5774 5775 5776 5777 5778 5778 5778 5778 5778 5778 5778
5769 5770 5770 5770 5771 5771 5772 5772 5772 5772 5773 5774 5774 5775 5776 5776 5775 5774 5774 5773 5772 5772 5772 5771 5771 5770 5770 5770 5771 5771 5771 5772 5773 5773 5774 5775 5776 5776 5777 5777 5776 5776
5767 5768 5768 5768 5769 5770 5770 5770 5770 5770 5771 5772 5772 5773 5774 5774 5774 5773 5772 5771 5771 5770 5770 5769 5769 5769 5768 5769 5769 5769 5769 5770 5771 5771 5772 5773 5773 5774 5775 5775 5775 5775
5766 5766 5766 5767 5767 5767 5767 5768 5768 5768 5769 5769 5770 5771 5772 5772 5772 5771 5770 5770 5769 5769 5768 5768 5767 5767 5767 5767 5767 5767 5768 5768 5768 5769 5770 5771 5771 5772 5772 5773 5773 5773
5764 5764 5764 5764 5765 5765 5765 5765 5765 5766 5766 5767 5768 5768 5769 5770 5769 5769 5769 5768 5768 5767 5766 5766 5766 5766 5766 5766 5766 5766 5766 5766 5766 5767 5767 5768 5769 5769 5769 5770 5770 5770
5760 5761 5761 5762 5762 5763 5763 5763 5763 5763 5764 5765 5765 5766 5767 5767 5767 5767 5767 5766 5766 5765 5765 5765 5764 5764 5764 5764 5765 5765 5765 5765 5765 5765 5765 5766 5766 5766 5767 5767 5767 5767
5756 5757 5757 5757 5758 5759 5760 5760 5760 5761 5761 5762 5763 5763 5764 5765 5765 5765 5764 5764 5764 5764 5763 5763 5763 5763 5763 5763 5763 5763 5763 5764 5763 5763 5764 5764 5764 5764 5764 5765 5765 5765
5753 5753 5753 5753 5753 5754 5756 5757 5758 5758 5758 5759 5760 5761 5762 5762 5763 5763 5762 5762 5762 5762 5762 5762 5762 5762 5762 5762 5762 5762 5762 5762 5762 5763 5762 5762 5762 5762 5762 5762 5762 5762
5749 5749 5749 5749 5750 5750 5752 5753 5754 5755 5755 5756 5757 5758 5758 5759 5760 5760 5760 5760 5761 5761 5761 5761 5761 5761 5761 5761 5761 5761 5761 5761 5762 5762 5761 5761 5761 5761 5761 5760 5760 5760
5745 5745 5745 5745 5747 5748 5749 5750 5751 5752 5752 5753 5754 5755 5756 5756 5757 5757 5758 5759 5759 5759 5760 5760 5759 5759 5759 5760 5760 5760 5760 5760 5760 5760 5760 5759 5759 5759 5759 5759 5758 5758
5743 5743 5743 5744 5746 5746 5747 5747 5748 5749 5750 5751 5752 5753 5753 5754 5755 5755 5756 5757 5757 5757 5758 5758 5758 5758 5758 5758 5758 5758 5758 5758 5758 5758 5757 5758 5758 5758 5758 5757 5757 5757
5741 5741 5742 5744 5745 5744 5745 5745 5746 5747 5748 5749 5750 5751 5751 5752 5753 5753 5754 5754 5755 5755 5755 5755 5755 5755 5755 5756 5756 5756 5756 5755 5755 5755 5756 5756 5756 5756 5756 5755 5755 5754
5738 5739 5741 5742 5743 5742 5742 5743 5743 5744 5746 5747 5747 5748 5749 5749 5750 5751 5751 5752 5753 5753 5753 5753 5753 5753 5753 5753 5754 5754 5753 5753 5753 5753 5754 5754 5754 5754 5753 5753 5753 5752
5736 5737 5738 5740 5740 5739 5740 5741 5742 5743 5743 5744 5744 5745 5746 5746 5747 5748 5748 5749 5750 5750 5751 5750 5750 5751 5751 5751 5752 5752 5752 5751 5751 5751 5751 5751 5751 5751 5751 5751 5751 5750
5734 5734 5735 5737 5737 5737 5738 5739 5739 5741 5741 5741 5741 5742 5742 5743 5743 5744 5745 5745 5746 5747 5747 5747 5747 5747 5748 5748 5749 5749 5749 5748 5748 5747 5747 5747 5747 5747 5747 5748 5748 5748
5732 5732 5732 5733 5734 5735 5735 5736 5737 5738 5738 5738 5739 5739 5739 5739 5739 5740 5741 5742 5742 5743 5743 5744 5744 5744 5744 5744 5745 5745 5745 5745 5744 5744 5743 5743 5743 5744 5744 5744 5744 5744
5729 5729 5730 5730 5731 5731 5731 5732 5734 5735 5735 5735 5735 5735 5736 5736 5735 5736 5736 5737 5738 5738 5739 5739 5740 5740 5740 5740 5740 5741 5741 5741 5741 5740 5740 5740 5741 5741 5740 5739 5740 5740
5724 5724 5725 5725 5726 5727 5728 5729 5730 5731 5731 5731 5731 5731 5731 5731 5731 5731 5731 5732 5733 5734 5734 5735 5735 5735 5735 5736 5736 5736 5737 5737 5737 5736 5736 5737 5737 5736 5735 5735 5735 5735
5718 5719 5719 5720 5720 5722 5723 5724 5724 5725 5725 5726 5726 5727 5727 5727 5727 5726 5726 5727 5728 5728 5728 5729 5729 5729 5730 5730 5731 5732 5732 5733 5733 5732 5732 5733 5732 5731 5731 5730 5730 5730
5713 5714 5715 5715 5716 5716 5717 5718 5718 5718 5719 5720 5720 5721 5721 5722 5722 5721 5721 5721 5722 5722 5722 5723 5723 5724 5724 5725 5726 5726 5727 5728 5727 5727 5727 5727 5727 5726 5726 5725 5725 5725
5708 5709 5710 5711 5711 5712 5712 5712 5712 5713 5713 5714 5714 5715 5715 5715 5715 5715 5715 5716 5716 5716 5716 5717 5717 5718 5719 5720 5720 5721 5722 5722 5721 5721 5720 5721 5722 5721 5721 5720 5720 5720
5703 5704 5705 5705 5706 5706 5706 5706 5707 5707 5707 5708 5708 5708 5709 5709 5709 5710 5710 5710 5710 5710 5711 5711 5711 5711 5712 5713 5714 5714 5715 5715 5715 5714 5714 5714 5714 5715 5715 5715 5714 5713
5697 5698 5698 5699 5699 5700 5700 5700 5700 5700 5700 5701 5701 5702 5702 5702 5702 5703 5703 5704 5704 5704 5705 5705 5704 5704 5704 5705 5706 5707 5708 5709 5708 5708 5708 5707 5707 5707 5707 5708 5707 5707
5691 5692 5693 5693 5693 5693 5693 5694 5694 5693 5693 5694 5694 5694 5694 5695 5695 5696 5696 5696 5697 5697 5698 5698 5698 5698 5697 5697 5698 5699 5700 5701 5702 5702 5702 5701 5700 5700 5700 5699 5699 5698
Wind_Speed
9 11 14 14 13 12 11 10 8 7 8 9 9 9 8 6 5 5 5 6 5 5 5 6 6 6 5 5 5 6 6 6 6 6 8 10 11 13 15 16 17 17
8 11 12 13 12 11 10 10 9 8 8 9 10 10 10 8 6 6 6 6 6 6 5 5 6 6 5 5 6 6 7 7 7 7 8 9 10 12 14 15 15 15
7 9 11 13 13 11 10 10 10 10 10 10 11 12 12 10 8 7 7 7 6 6 5 5 6 5 6 6 6 7 7 8 8 8 8 9 10 11 12 12 12 12
9 9 9 12 14 13 11 10 10 10 12 12 12 13 13 11 10 9 8 8 7 7 6 6 6 6 6 7 7 7 7 8 8 9 9 9 10 10 10 10 10 10
11 9 9 10 12 14 14 14 13 12 12 12 12 13 13 12 11 10 9 9 9 8 7 7 7 7 7 7 7 8 8 8 8 8 9 10 10 10 10 9 9 9
12 10 9 9 11 14 16 17 17 15 13 13 12 13 14 14 13 11 11 11 10 9 8 7 8 8 8 8 8 8 9 9 9 9 9 9 10 10 9 9 9 8
15 16 16 15 14 14 16 18 18 17 15 13 13 14 15 16 14 13 13 12 12 11 9 9 9 8 9 9 9 9 10 10 10 9 9 9 10 10 10 9 9 9
18 20 21 20 17 15 15 16 16 15 14 14 15 17 18 17 16 15 14 14 14 13 11 10 10 10 10 10 10 10 10 10 10 10 10 10 10 11 11 11 10 10
17 18 19 19 19 18 17 15 15 16 16 18 20 21 21 19 18 16 15 15 16 15 13 12 11 11 11 11 11 10 10 9 9 9 10 10 10 11 11 11 10 10
18 17 16 14 15 16 16 16 16 18 20 22 22 22 22 21 19 18 17 17 18 17 16 14 12 12 12 12 12 11 10 10 9 9 9 10 10 11 11 11 10 9
18 16 15 14 13 13 15 16 17 18 21 22 22 22 22 22 21 20 19 18 19 19 17 15 14 13 13 13 13 12 10 9 8 8 9 9 10 10 11 10 9 9
15 15 16 17 16 16 17 18 18 19 20 20 21 22 23 23 22 21 20 19 19 18 17 16 15 14 14 14 13 11 9 9 9 9 10 11 11 12 12 12 11 11
10 11 13 14 14 16 18 19 19 18 18 19 20 22 23 22 22 21 21 20 19 19 17 16 15 15 14 13 13 12 12 12 13 13 14 15 15 15 15 15 15 15
10 9 12 15 16 16 16 16 16 16 17 18 21 22 22 22 22 22 22 22 22 21 20 18 16 14 14 13 14 15 16 17 17 17 18 19 20 20 20 19 18 18
11 11 13 16 18 17 15 14 14 15 17 20 21 22 22 23 23 23 24 24 24 24 23 21 20 18 18 18 18 19 20 21 21 21 22 23 24 24 23 22 21 21
18 18 16 18 21 19 16 14 15 16 19 21 22 22 22 22 23 23 23 24 24 24 24 23 23 22 22 22 22 23 24 24 25 26 26 27 27 27 27 25 24 24
24 22 19 19 19 18 17 18 18 18 19 20 21 22 22 23 23 22 22 22 22 22 23 23 24 24 24 24 24 25 25 26 27 27 28 29 29 29 29 28 27 27
22 22 20 19 18 19 20 20 21 20 19 20 21 22 23 24 24 24 23 22 22 22 23 24 25 25 25 26 26 26 27 27 28 28 29 28 27 26 27 29 30 29
22 22 22 23 22 22 22 22 22 21 20 21 22 23 24 25 25 26 26 25 25 25 25 26 26 27 27 27 28 28 28 29 30 30 31 30 29 29 31 32 32 32
23 24 25 25 25 25 25 26 27 26 24 25 26 27 27 28 28 28 29 28 27 27 27 27 28 29 28 29 30 30 30 31 32 33 34 34 34 34 35 34 33 34
29 29 29 29 29 29 30 30 31 30 29 29 30 30 31 31 32 32 32 31 31 30 30 30 30 31 31 32 33 33 34 34 35 36 37 38 38 38 37 37 37 38
34 33 33 33 33 34 34 34 35 35 34 33 34 35 35 36 37 37 37 36 35 34 33 33 33 34 34 35 35 36 37 38 40 42 42 41 41 41 41 41 40 41
38 37 37 37 37 37 37 37 38 38 38 37 38 39 40 41 41 41 41 41 39 38 38 37 37 37 37 36 37 38 40 43 46 47 47 45 44 44 44 43 43 43
41 41 41 41 40 40 39 40 40 41 42 43 43 44 44 45 45 45 44 44 43 43 42 40 39 39 38 38 39 42 44 46 48 48 49 48 48 47 47 46 45 45
45 45 45 44 43 43 42 42 43 43 44 45 46 46 46 46 47 48 47 46 45 45 43 41 39 40 41 42 44 47 48 48 49 49 49 49 49 49 49 49 48 48
46 46 46 46 46 46 46 47 47 47 48 48 48 47 47 47 48 49 51 50 49 48 47 45 44 45 47 48 50 51 52 52 51 51 51 51 51 51 52 52 52 52
Wind_Direction
266 259 258 259 254 246 242 242 247 258 274 283 285 280 264 256 272 291 308 321 323 319 305 291 286 281 278 273 273 280 283 283 277 265 260 255 250 247 243 241 240 239
273 267 260 253 249 249 250 253 260 262 268 279 282 276 265 260 270 281 295 307 308 307 302 295 291 287 285 280 275 275 277 280 278 269 261 253 243 238 236 236 235 234
297 288 268 251 242 244 253 262 268 267 267 274 280 279 270 265 271 278 287 295 297 299 298 295 296 296 295 292 285 278 275 275 274 270 265 257 247 240 234 229 227 227
294 297 279 260 248 248 256 265 271 269 268 272 278 279 273 268 271 277 286 291 292 294 295 294 298 302 301 297 290 281 275 272 269 269 268 264 259 252 244 233 225 222
279 286 288 276 261 257 260 265 271 273 270 269 273 274 271 268 271 277 284 287 288 290 292 295 300 303 301 295 287 278 271 266 263 263 265 265 264 262 258 250 240 233
275 278 291 294 277 262 260 264 268 269 269 265 262 263 264 266 269 276 283 286 287 286 287 291 294 296 295 288 279 271 263 259 257 257 259 261 265 266 265 264 261 259
273 275 283 291 287 270 264 267 265 262 264 262 257 257 259 262 267 273 279 283 284 284 283 286 288 288 287 280 273 266 258 254 251 252 254 258 262 265 266 270 274 278
270 270 274 279 280 273 269 268 259 253 256 261 262 262 259 261 265 268 274 279 281 281 280 281 283 283 280 274 268 263 257 253 251 251 255 258 261 265 269 274 279 285
271 270 271 271 268 266 265 263 256 253 258 264 267 265 260 259 263 265 269 275 277 277 275 276 278 278 277 272 265 261 258 256 257 258 260 263 267 271 275 279 283 287
271 271 269 265 259 256 254 252 254 257 262 267 267 263 257 255 258 260 263 267 270 271 270 269 271 275 275 272 266 264 264 264 266 268 271 274 278 279 281 283 287 291
266 265 263 259 253 246 242 243 248 252 257 261 261 257 251 249 251 254 258 262 265 267 267 267 269 273 274 273 270 268 269 273 280 287 292 292 291 288 286 286 290 296
261 263 259 253 249 248 248 249 249 248 249 253 253 250 247 246 248 251 254 258 262 264 264 266 269 272 272 271 268 266 271 280 291 302 306 304 300 298 297 299 302 306
241 254 256 256 260 261 259 257 254 250 248 249 250 248 246 247 251 253 255 257 259 260 261 264 268 269 267 264 262 266 276 285 293 301 303 302 300 299 301 305 309 310
227 253 265 267 268 265 260 258 256 252 248 247 246 245 246 249 252 255 255 256 257 257 257 258 260 260 258 256 259 266 274 281 287 293 295 295 294 296 298 300 303 304
245 269 269 263 263 264 261 258 253 249 245 243 242 243 245 248 250 252 254 255 256 256 256 257 257 257 259 260 263 267 271 277 282 284 286 287 288 290 293 295 296 296
263 273 270 264 265 265 259 250 246 244 239 237 239 241 242 243 246 248 250 252 253 255 256 259 261 263 265 268 270 272 276 280 282 282 282 283 283 283 284 286 289 290
268 272 269 262 260 260 257 252 248 244 238 234 235 237 238 240 242 243 245 247 248 251 254 258 261 264 268 271 273 276 280 283 284 283 281 281 282 280 280 282 285 286
274 275 271 265 261 261 260 253 243 239 238 236 235 236 237 240 242 243 244 244 246 250 254 257 261 264 269 272 274 276 280 282 284 284 283 283 282 282 284 286 286 286
278 278 275 272 269 266 260 250 245 246 246 245 246 246 245 245 246 246 247 247 249 252 255 258 261 264 268 271 273 276 277 279 281 283 283 284 284 284 286 288 286 284
268 268 268 268 267 266 263 260 262 265 262 257 256 256 253 251 250 250 250 250 251 253 255 258 260 263 266 270 272 274 276 277 279 280 282 284 285 284 285 285 284 282
266 265 266 266 266 265 264 264 265 265 263 260 259 259 257 255 254 253 252 252 252 254 255 258 261 264 267 271 274 276 277 278 279 280 282 283 284 284 284 283 282 283
271 272 273 273 272 271 270 268 267 265 263 261 260 260 260 260 258 256 255 255 255 256 257 259 261 264 267 270 273 276 278 281 282 283 283 283 283 282 282 281 281 281
272 272 273 274 273 272 270 269 269 267 266 265 263 262 262 262 260 257 256 257 257 257 258 259 260 261 263 265 268 272 277 280 282 282 283 282 282 281 281 280 279 279
272 272 272 272 271 269 268 268 268 268 268 269 268 267 265 263 261 258 256 256 258 258 257 257 258 259 259 261 266 271 276 279 281 281 281 281 281 281 280 280 280 280
272 272 272 271 270 269 268 267 267 267 268 268 269 269 267 263 261 260 258 258 259 258 255 255 258 262 264 266 270 274 278 280 281 280 280 281 281 281 281 282 282 281
269 270 270 270 270 270 270 270 269 269 268 267 267 268 267 264 262 262 261 261 262 261 258 257 262 268 271 273 275 276 278 279 279 279 279 280 280 281 282 283 283 283